Location: Unspecified
(0.0000°N, 0.0000°E)
Time: 23:18:19
(UTC+00:00)

Vanguard 2 - Pass Details

Date: 17 December 2018
Orbit: 552 x 2939 km, 32.9° (Epoch: 19 January)

Event Time Altitude Azimuth Distance (km) Brightness Sun altitude
Rises 09:04:22 0° 233° (SW) 6,707 12.2 42.2°
Reaches altitude 10° 09:14:38 10° 204° (SSW) 5,272 12.0 44.4°
Maximum altitude 09:18:43 11° 188° (S) 4,899 12.0 45.2°
Drops below altitude 10° 09:22:28 10° 172° (S) 4,738 12.1 46.0°
Sets 09:29:54 0° 140° (SE) 5,072 12.4 47.5°
